Weather History for Dickinson, ND

Change the Weather History Date:

Friday, January 25, 2013

  Actual Average Record
Temperature  
Mean Temperature 19 °F 17 °F  
Max Temperature 26 °F 27 °F 59 °F (2007)
Min Temperature 12 °F 7 °F -39 °F (1929)
Degree Days  
Heating Degree Days 46 48  
Month to date heating degree days 1186 1221  
Since 1 July heating degree days 4577 4758  
Cooling Degree Days 0 0  
Month to date cooling degree days 0 0  
Year to date cooling degree days 0 0  
Moisture  
Dew Point 14 °F    
Average Humidity 89    
Maximum Humidity 100    
Minimum Humidity 77    
Precipitation  
Precipitation 0.00 in 0.01 in 0.15 in (1951)
Month to date precipitation 0.06 0.25  
Year to date precipitation 0.06 0.25  
Sea Level Pressure  
Sea Level Pressure 30.09 in    
Wind  
Wind Speed 11 mph (SE)    
Max Wind Speed 18 mph    
Max Gust Speed 23 mph    
Visibility 7 miles    
Events Fog    
T = Trace of Precipitation, MM = Missing Value Source: NWS Daily Summary

Daily Weather History Graph

Daily Weather History Graph

Search for Another Location

Airport:

Trip Planner

Search our weather history database for the weather conditions in past years. The results will help you decide how hot, cold, wet, or windy it might be!

Date:

Astronomy

Jan. 25, 2013 Rise Set
Actual Time 7:23 AM MST 4:44 PM MST
Civil Twilight 6:50 AM MST 5:17 PM MST
Nautical Twilight 6:13 AM MST 5:54 PM MST
Astronomical Twilight 5:37 AM MST 6:30 PM MST
Moon 3:44 PM MST (1/25) 6:04 AM MST (1/25)
Length of Visible Light 10h 27m
Length of Day
9h 21m
Waxing Gibbous, 98% of the Moon is Illuminated
Jan 25
Waxing Gibbous
Jan 26
Full
Feb 3
Last Quarter
Feb 10
New
Feb 17
First Quarter

Hourly Weather History & Observations

Time (MST) Temp. Windchill Dew Point Humidity Pressure Visibility Wind Dir Wind Speed Gust Speed Precip Events Conditions
12:56 AM 21.0 °F 7.6 °F 16.0 °F 81% 30.09 in 10.0 mi WNW 15.0 mph - N/A   Clear
1:56 AM 21.0 °F 7.6 °F 16.0 °F 81% 30.09 in 10.0 mi WNW 15.0 mph - N/A   Clear
2:56 AM 21.0 °F 7.6 °F 15.1 °F 78% 30.09 in 10.0 mi WNW 15.0 mph - N/A   Clear
3:56 AM 18.0 °F 4.8 °F 14.0 °F 84% 30.08 in 10.0 mi West 12.7 mph - N/A   Clear
4:56 AM 17.1 °F 4.3 °F 12.0 °F 81% 30.11 in 10.0 mi West 11.5 mph - N/A   Clear
5:56 AM 18.0 °F 7.7 °F 12.9 °F 81% 30.12 in 10.0 mi WNW 8.1 mph - N/A   Clear
6:56 AM 16.0 °F 5.3 °F 10.9 °F 81% 30.13 in 10.0 mi WNW 8.1 mph - N/A   Clear
7:56 AM 14.0 °F 2.9 °F 10.0 °F 84% 30.16 in 10.0 mi NNE 8.1 mph - N/A   Clear
8:38 AM 12.2 °F -0.2 °F 10.4 °F 92% 30.04 in 2.5 mi NE 9.2 mph - N/A   Scattered Clouds
8:42 AM 12.2 °F -0.2 °F 10.4 °F 92% 30.04 in 1.2 mi NE 9.2 mph - N/A   Mostly Cloudy
8:49 AM 12.2 °F 1.7 °F 12.2 °F 100% 30.04 in 0.2 mi NE 6.9 mph - N/A Fog Light Freezing Fog
8:56 AM 12.9 °F 2.6 °F 12.0 °F 96% 30.17 in 0.2 mi ENE 6.9 mph - N/A Fog Light Freezing Fog
9:41 AM 15.8 °F 7.2 °F 12.2 °F 86% 30.07 in 0.5 mi East 5.8 mph - N/A Fog Light Freezing Fog
9:51 AM 15.8 °F 10.2 °F 12.2 °F 86% 30.07 in 0.2 mi East 3.5 mph - N/A Fog Light Freezing Fog
9:56 AM 15.1 °F - 12.9 °F 91% 30.20 in 0.2 mi Calm Calm - N/A Fog Light Freezing Fog
10:15 AM 15.8 °F 10.2 °F 12.2 °F 86% 30.07 in 0.5 mi ENE 3.5 mph - N/A Fog Light Freezing Fog
10:28 AM 15.8 °F 10.2 °F 12.2 °F 86% 30.08 in 1.0 mi ENE 3.5 mph - N/A   Overcast
10:48 AM 15.8 °F 7.2 °F 12.2 °F 86% 30.07 in 3.0 mi East 5.8 mph - N/A   Overcast
10:56 AM 15.1 °F 9.4 °F 12.9 °F 91% 30.20 in 5.0 mi East 3.5 mph - N/A   Overcast
12:56 PM 17.1 °F 5.8 °F 14.0 °F 88% 30.16 in 6.0 mi ESE 9.2 mph - N/A   Overcast
1:23 PM 17.6 °F 7.3 °F 14.0 °F 86% 30.02 in 8.0 mi SSE 8.1 mph - N/A   Mostly Cloudy
1:56 PM 17.1 °F 5.8 °F 14.0 °F 88% 30.15 in 8.0 mi SSE 9.2 mph - N/A   Overcast
2:20 PM 17.6 °F 6.4 °F 14.0 °F 86% 30.01 in 8.0 mi SE 9.2 mph - N/A   Scattered Clouds
2:56 PM 18.0 °F 7.7 °F 14.0 °F 84% 30.13 in 8.0 mi SE 8.1 mph - N/A   Clear
3:56 PM 17.1 °F 3.6 °F 12.9 °F 84% 30.12 in 9.0 mi SSE 12.7 mph - N/A   Clear
4:56 PM 16.0 °F 3.6 °F 12.0 °F 84% 30.12 in 9.0 mi SSE 10.4 mph - N/A   Clear
5:56 PM 17.1 °F 4.3 °F 12.9 °F 84% 30.11 in 10.0 mi SSE 11.5 mph - N/A   Clear
6:56 PM 18.0 °F 3.1 °F 14.0 °F 84% 30.09 in 10.0 mi South 16.1 mph - N/A   Clear
7:56 PM 19.9 °F 5.2 °F 16.0 °F 85% 30.07 in 10.0 mi South 17.3 mph - N/A   Clear
8:56 PM 21.0 °F 7.1 °F 17.1 °F 85% 30.06 in 10.0 mi South 16.1 mph - N/A   Clear
9:56 PM 23.0 °F 9.2 °F 18.0 °F 81% 30.04 in 10.0 mi South 17.3 mph - N/A   Clear
10:56 PM 24.1 °F 12.5 °F 19.9 °F 84% 30.03 in 10.0 mi South 12.7 mph - N/A   Clear
11:56 PM 26.1 °F 19.4 °F 21.0 °F 81% 30.02 in 10.0 mi South 5.8 mph - N/A   Clear